sat.trackr.live / text

‹ back to catalog

STARLINK-30900

NORAD 58423 · 2023-180X

PAYLOAD ACTIVE UNKNOWN

§ Identity

Operator
Country
US
Launch date
2023-11-22
Launch site
AFETR
Launch vehicle
Mass (kg)
RCS (m²)

Purposes: comms

External: N2YO · Heavens-Above · Gunter

§ Orbital elements

Epoch: 2026-09-20T09:14:56.744736Z

Period
94.27 min
Inclination
43.0030°
Eccentricity
0.0001255
Mean motion
15.27580428 rev/d
Perigee alt
482.2 km
Apogee alt
483.9 km
Semi-major
6,861.2 km
B*
-1.3597e-5
RAAN
32.8315°
Arg perigee
268.1169°
Mean anomaly
91.9539°
Rev number
15,729

§ Raw data

STARLINK-309001 58423U 23180X   26263.38537899 -.00000636  00000+0 -13597-4 0  99922 58423  43.0030  32.8315 0001255 268.1169  91.9539 15.27580428157294

JSON: /api/v1/satellites/58423 · /tle

For live sub-satellite position, see the globe view (requires WebGL).

§ Visibility from observer

Set your observer location to see the next 7 days of passes ≥ 10°. The values pass through the URL so the page stays shareable.

No JS? Fill the form by hand. The geolocation button needs JavaScript.